Temp
49 50 49 49 50 50 50 50 51 51 51 52 52 52 52 52 52 49 47 50 43 33 39 41 44 38 34 34 32 28 28 27 27 23 23 23 22 21 17 18 11 13 12 12 15 12 10 11 9 14 18 5 5 -1
49 49 50 49 49 49 49 49 50 50 50 50 50 51 51 51 52 51 43 49 49 42 39 44 46 50 47 46 38 33 32 27 30 26 24 24 22 17 13 17 11 17 22 16 18 17 13 16 14 13 13 14 11 9
48 48 48 48 48 49 49 49 49 49 49 49 50 50 51 51 51 50 43 44 43 37 39 37 37 41 46 49 48 34 32 35 30 32 29 27 21 22 15 15 14 13 20 19 20 19 16 14 13 13 13 13 12 12
47 48 48 48 49 49 49 49 49 49 48 50 50 50 50 50 50 50 41 41 40 34 30 35 36 33 32 34 34 36 37 33 32 31 29 25 22 26 21 22 19 17 19 19 19 15 13 14 17 13 12 12 11 11
47 46 47 47 47 47 47 47 47 48 49 49 49 49 49 50 50 46 43 41 43 36 29 28 28 27 27 29 31 31 32 33 29 26 25 22 21 22 16 18 15 14 17 18 19 14 14 9 12 13 11 10 11 9
46 46 46 47 47 47 47 47 47 47 47 47 47 47 48 48 48 38 33 39 44 42 32 26 22 19 24 26 27 25 26 26 28 26 25 18 16 18 15 15 6 5 6 6 9 7 6 6 7 11 9 9 9 8
46 46 46 47 47 47 47 47 47 47 47 47 46 45 45 47 42 34 32 36 44 42 32 28 21 17 22 23 21 21 21 19 21 20 17 15 14 16 13 12 4 4 4 4 5 7 5 5 2 5 5 6 6 1
46 46 46 46 46 46 47 46 47 46 46 47 47 47 46 47 43 36 40 44 44 34 32 25 16 13 18 15 13 18 17 17 12 12 12 10 12 11 8 3 3 2 1 0 -1 -0 1 -0 -1 -1 0 1 -1 -2
46 46 46 46 46 46 46 46 46 46 46 46 46 46 37 33 31 32 39 37 34 33 26 21 15 17 13 9 10 11 12 5 8 0 4 7 6 6 6 2 1 2 3 -3 -2 -2 -2 -3 -6 -6 -7 -7 -8 -14
46 46 46 46 46 46 46 46 46 46 45 45 36 29 27 32 38 37 33 29 28 21 18 15 8 4 10 9 7 4 5 3 4 -2 4 2 3 -1 -3 -1 4 2 -1 -1 -3 -5 -6 -8 -9 -18 -17 -23 -21 -21
45 46 46 46 45 45 45 45 45 45 42 32 28 27 31 37 30 24 20 15 18 16 7 4 6 7 13 9 8 10 6 0 -4 -6 -2 -7 -10 -10 -12 -5 -3 -1 -2 -8 -11 -12 -13 -14 -14 -15 -23 -26 -28 -28
45 45 45 44 44 44 45 45 45 38 32 33 31 31 28 25 20 18 14 8 4 4 4 1 5 9 10 14 8 7 5 4 1 2 -2 -8 -6 -14 -6 -7 -10 -9 -10 -15 -16 -16 -21 -16 -23 -23 -26 -27 -27 -26
45 44 44 44 44 45 44 45 45 43 37 32 28 23 20 19 14 11 -0 3 8 5 4 6 6 9 9 11 6 6 2 -1 2 -4 -3 2 -0 -4 -7 -12 -17 -21 -21 -19 -23 -22 -27 -31 -32 -27 -25 -29 -31 -31
44 44 44 43 44 44 44 44 44 39 29 23 17 13 10 4 1 1 1 4 5 6 7 8 5 6 4 5 6 1 -2 1 -4 -8 -3 1 -2 -7 -12 -16 -16 -20 -21 -19 -25 -29 -27 -24 -26 -28 -29 -32 -30 -27
41 40 41 40 40 38 36 34 31 22 16 10 12 1 -3 1 2 2 1 4 8 9 7 4 4 7 4 2 2 -1 -4 -5 -3 -3 -2 -6 -11 -11 -14 -17 -17 -20 -29 -29 -32 -30 -30 -30 -27 -26 -28 -31 -30 -27
42 39 35 37 36 35 32 26 15 14 6 2 -2 2 4 4 2 2 3 5 7 7 8 9 4 2 0 1 -2 -1 0 0 1 -4 -7 -14 -18 -19 -19 -24 -24 -25 -25 -30 -31 -30 -29 -29 -28 -29 -33 -31 -28 -25
38 33 35 35 33 31 30 14 7 -2 -6 -7 -9 1 -1 -2 -1 -0 3 4 9 8 5 6 3 -0 1 0 -0 2 -0 -1 -6 -7 -10 -17 -18 -18 -24 -21 -20 -21 -23 -27 -32 -31 -31 -35 -38 -31 -24 -26 -30 -25
26 31 35 33 25 23 10 11 5 4 -2 -2 -3 -1 1 -0 -1 1 6 8 8 8 8 4 6 2 0 -2 -1 -3 -8 -11 -10 -11 -10 -16 -23 -22 -16 -16 -16 -18 -19 -24 -26 -30 -32 -31 -25 -20 -25 -26 -21 -20
30 28 32 32 25 13 9 8 8 1 2 3 5 6 6 7 8 8 8 9 10 10 6 0 -4 -7 -4 -6 -9 -11 -14 -10 -10 -11 -16 -21 -22 -19 -19 -20 -18 -22 -22 -24 -20 -17 -18 -20 -20 -19 -18 -16 -17 -17
32 32 31 28 21 4 -2 -1 3 2 -1 3 5 4 3 2 4 3 1 2 1 -6 -5 -9 -8 -7 -9 -11 -11 -11 -10 -11 -10 -9 -7 -9 -16 -18 -14 -13 -13 -18 -21 -24 -22 -9 -18 -14 -12 -13 -16 -18 -17 -14
22 20 23 12 3 1 -4 -13 -6 -6 -6 -5 -8 -5 -7 -7 -11 -14 -15 -5 -11 -23 -13 -17 -17 -14 -20 -15 -14 -10 -8 -7 -7 -6 -6 -10 -13 -11 -11 -11 -13 -13 -14 -12 -12 -12 -1 -10 -10 -10 -8 -6 -8 -7
8 24 5 10 0 -3 -1 -6 -5 -5 -6 -9 -10 -12 -19 -16 -18 -17 -13 -11 -16 -9 -10 -10 -7 -8 -5 -7 -8 -11 -11 -10 -10 -8 1 -0 -13 -11 -10 -8 -10 -11 -11 -9 -9 -9 -9 -7 -7 -9 -7 -5 -2 -4
19 13 3 5 4 1 -4 -4 -5 -9 -7 -7 -15 -12 -16 -20 -18 -13 -10 -16 -9 -10 -10 -9 -11 -13 -11 -9 -11 -9 -9 -8 -6 -5 -3 -3 -3 -3 -4 -5 -5 -8 -8 -7 -6 -7 -7 -2 -4 -2 -5 -3 -5 -7
16 -2 -4 -8 -3 -9 -9 -9 -12 -12 -15 -14 -19 -13 -14 -20 -15 -13 -11 -13 -3 -4 -4 -8 -7 -6 -4 -7 -6 -3 -2 -4 -4 -4 -4 -4 -4 -5 -4 -4 -6 -4 -3 -3 -4 -4 -5 -5 -1 -3 -4 -8 -9 -10
6 -3 -4 -8 -12 -7 -11 -10 -13 -9 -17 -23 -16 -14 -15 -21 -15 -15 -14 -6 4 4 3 2 1 -2 -5 -2 1 1 -0 -1 -2 -3 -2 -3 -2 -4 -4 -3 -5 -4 -2 -4 -5 -5 -5 -5 -5 -6 -8 -10 -13 -16
-7 -13 -8 -17 -12 -9 -14 -9 -14 -17 -21 -18 -18 -20 -26 -20 -12 -13 -7 -4 1 -3 -2 -4 -5 -5 -3 1 -1 0 2 0 -1 -3 -0 -1 -2 -2 -3 -3 -4 -3 -1 -1 -3 -4 -4 -4 -5 -7 -7 -7 0 -3
-4 -9 -10 -3 -8 -8 -8 -8 -8 -13 -18 -16 -16 -15 -17 -12 -11 -5 -2 -8 -2 -0 -0 -2 -4 -5 -5 -3 0 3 1 -0 -0 -0 -1 -0 1 1 0 -2 -2 1 1 -1 -1 -2 -3 -4 -4 -5 -6 -6 -7 -9
-12 -16 -8 -9 -13 -13 -12 -13 -14 -12 -12 -9 -8 -11 -10 -9 -6 -4 -5 2 -0 -1 -2 -2 -1 -3 -4 -4 -2 -2 -2 -2 -1 -1 -1 -0 0 1 1 1 2 7 3 -0 -1 -1 -2 -2 -3 -4 -5 -6 -5 -6
-10 -10 -13 -12 -18 -14 -13 -9 -8 -9 -5 -8 -8 -5 -5 -8 -10 -9 -3 -1 -2 -7 -6 -6 -6 -5 -4 -2 -6 -3 -5 -4 -4 -5 -4 -3 -0 2 1 0 -0 0 1 2 8 3 -2 -2 -3 -3 -4 -4 -4 -4
-9 -13 -10 -17 -10 -3 -8 -12 -13 -16 -11 -9 -7 -7 -5 -6 -11 -13 -9 -3 -5 -7 -8 -12 -10 -12 -9 -9 -7 -4 1 -1 -1 -3 -5 -5 -2 2 2 1 -0 -1 -1 -1 -0 0 8 9 7 5 -3 -5 -5 -5
-9 -13 -12 -14 -10 -13 -16 -18 -20 -9 -18 -21 -17 -15 -10 -11 -8 -10 -10 -4 -10 -11 -5 -7 -10 -17 -11 -9 -8 -8 -8 -3 1 1 2 3 2 2 2 2 2 0 -1 -2 -2 -2 -2 0 -1 -3 -4 -5 -6 -2
-10 -17 -12 -6 -5 -18 -21 -22 -23 -20 -23 -20 -16 -21 -16 -13 -10 -8 -3 -9 -3 -4 -0 -5 -10 -9 -8 -7 -6 -3 5 -2 -1 -1 4 10 9 7 4 3 2 1 -1 -3 -3 -3 -3 -4 -3 -3 -4 -5 -5 -5
-17 -22 -21 -17 -10 -9 -15 -16 -15 -14 -18 -16 -13 -16 -17 -12 -8 -2 -2 -4 -5 -4 -6 -6 -6 -7 -9 -10 -8 -5 -0 -4 -0 8 13 14 15 14 8 1 -2 -0 -2 -3 -3 -4 -5 -5 -5 -5 -5 -5 -5 -5
MSLP
1013.45 1013.19 1013.05 1012.83 1012.59 1012.30 1012.10 1011.97 1011.76 1011.53 1011.40 1011.24 1011.12 1011.00 1010.89 1010.80 1010.80 1011.03 1009.83 1009.83 1010.20 1009.75 1008.79 1008.80 1008.74 1009.07 1009.41 1009.53 1010.00 1011.22 1012.33 1012.55 1013.09 1012.95 1012.83 1012.33 1012.41 1012.61 1013.13 1012.99 1013.71 1014.22 1014.90 1014.61 1014.92 1015.09 1014.46 1014.14 1016.97 1016.85 1014.27 1014.71 1015.46 1016.46
1012.60 1012.37 1012.08 1012.01 1011.77 1011.59 1011.42 1011.22 1010.96 1010.81 1010.60 1010.48 1010.31 1010.25 1010.20 1010.07 1010.06 1010.05 1009.43 1009.34 1009.12 1008.48 1007.41 1007.26 1006.96 1006.46 1006.93 1007.10 1008.14 1009.20 1009.39 1010.03 1010.45 1011.18 1011.31 1010.98 1010.98 1011.65 1012.06 1012.75 1013.12 1013.03 1011.19 1011.58 1012.59 1011.37 1011.53 1012.34 1013.30 1013.91 1014.35 1015.01 1015.90 1016.61
1011.86 1011.60 1011.42 1011.15 1010.92 1010.68 1010.49 1010.28 1010.00 1009.93 1009.85 1009.69 1009.46 1009.26 1009.17 1009.16 1009.07 1009.17 1008.80 1008.77 1008.97 1008.37 1007.49 1007.17 1006.46 1006.53 1006.35 1006.41 1006.89 1007.96 1008.37 1008.62 1008.97 1008.40 1008.82 1009.32 1010.00 1009.97 1010.87 1011.06 1011.48 1011.08 1010.64 1011.27 1011.85 1010.34 1011.42 1012.41 1013.47 1014.30 1014.89 1015.37 1016.08 1016.73
1010.85 1010.56 1010.31 1010.06 1009.79 1009.57 1009.31 1009.16 1009.00 1008.96 1008.93 1008.66 1008.49 1008.30 1008.11 1008.03 1008.06 1008.14 1008.08 1008.03 1008.43 1008.22 1007.47 1006.28 1006.88 1007.33 1007.38 1007.26 1007.18 1007.05 1007.28 1007.75 1008.21 1008.55 1008.50 1008.23 1008.92 1008.76 1009.14 1009.28 1010.65 1010.75 1011.28 1010.92 1011.02 1011.20 1012.35 1012.80 1013.25 1014.07 1015.09 1015.92 1016.65 1017.34
1009.93 1009.74 1009.50 1009.18 1008.99 1008.81 1008.61 1008.43 1008.26 1008.05 1007.79 1007.63 1007.57 1007.34 1007.21 1007.03 1007.01 1007.09 1007.10 1006.81 1007.05 1007.59 1006.56 1006.72 1007.32 1007.54 1007.86 1007.68 1007.42 1007.58 1007.61 1007.54 1007.98 1008.51 1008.49 1008.54 1008.61 1009.18 1009.75 1010.37 1010.53 1010.43 1010.85 1011.87 1011.47 1011.97 1012.75 1014.03 1014.26 1014.76 1015.54 1016.30 1017.15 1017.87
1008.79 1008.59 1008.39 1008.19 1007.98 1007.78 1007.59 1007.46 1007.34 1007.15 1007.09 1006.90 1006.65 1006.40 1006.26 1006.21 1006.29 1006.72 1006.46 1005.24 1005.40 1005.77 1006.63 1006.72 1007.19 1007.68 1007.82 1007.67 1007.89 1008.14 1008.22 1008.39 1008.33 1008.24 1008.36 1009.00 1009.42 1009.76 1010.27 1010.61 1010.74 1011.54 1012.40 1012.98 1013.24 1013.94 1014.74 1015.54 1015.91 1016.11 1016.68 1017.45 1018.16 1018.91
1007.76 1007.56 1007.37 1007.12 1006.82 1006.56 1006.37 1006.35 1006.31 1006.22 1006.20 1006.04 1006.04 1005.87 1005.79 1005.52 1005.64 1005.60 1005.06 1004.87 1004.63 1005.19 1005.17 1005.60 1007.02 1008.47 1008.68 1008.68 1008.93 1009.09 1009.13 1009.26 1009.47 1009.59 1009.88 1010.24 1010.48 1010.52 1011.13 1011.81 1012.18 1012.97 1013.94 1014.85 1015.47 1015.57 1016.36 1016.96 1017.65 1017.98 1018.40 1018.99 1019.63 1020.71
1006.88 1006.63 1006.34 1006.07 1005.83 1005.59 1005.42 1005.36 1005.28 1005.28 1005.29 1005.18 1005.13 1004.99 1005.05 1004.77 1004.81 1004.74 1004.06 1004.35 1004.52 1005.19 1005.61 1005.93 1007.69 1009.17 1009.05 1009.33 1009.88 1009.88 1009.89 1010.10 1010.69 1010.87 1011.36 1011.69 1011.98 1012.27 1012.62 1012.67 1013.81 1014.72 1015.69 1016.59 1017.05 1017.27 1017.82 1018.64 1019.34 1020.00 1020.53 1020.85 1021.63 1022.57
1005.86 1005.59 1005.29 1004.96 1004.71 1004.51 1004.29 1004.20 1004.25 1004.32 1004.44 1004.57 1004.63 1004.57 1004.50 1004.31 1004.53 1003.78 1003.85 1003.75 1003.98 1004.91 1005.13 1006.13 1007.95 1008.99 1009.55 1010.09 1010.35 1010.58 1010.66 1011.68 1012.42 1012.65 1013.29 1013.88 1013.26 1012.95 1012.92 1013.97 1014.88 1015.88 1016.88 1018.17 1018.58 1018.98 1019.67 1020.26 1021.19 1021.89 1022.41 1022.99 1023.81 1024.55
1004.83 1004.53 1004.22 1003.91 1003.73 1003.60 1003.34 1003.39 1003.50 1003.53 1003.77 1004.06 1004.53 1004.78 1004.71 1004.01 1003.86 1003.87 1003.92 1004.38 1004.51 1005.38 1006.04 1007.08 1008.46 1009.62 1010.03 1010.47 1010.84 1011.47 1011.54 1012.14 1012.93 1014.07 1014.42 1014.48 1013.85 1014.17 1015.17 1015.29 1015.71 1017.24 1018.48 1019.11 1019.86 1020.67 1021.43 1022.27 1022.75 1023.58 1024.09 1025.08 1025.55 1026.03
1003.92 1003.45 1003.04 1002.77 1002.68 1002.72 1002.66 1002.72 1002.86 1002.95 1003.59 1004.17 1004.63 1004.81 1004.75 1004.32 1004.33 1004.39 1004.73 1005.46 1006.00 1007.04 1008.51 1009.42 1009.69 1009.95 1010.51 1010.58 1010.99 1011.52 1011.87 1012.65 1013.57 1014.75 1015.21 1015.33 1015.38 1015.55 1016.39 1017.06 1017.90 1018.95 1019.79 1020.52 1020.83 1021.42 1022.45 1022.44 1023.55 1024.57 1025.67 1026.14 1026.31 1026.65
1003.13 1002.62 1001.90 1001.70 1001.92 1002.03 1002.02 1002.02 1002.03 1002.57 1003.43 1003.56 1004.05 1004.57 1004.65 1004.89 1005.13 1005.77 1006.65 1007.55 1008.29 1009.68 1010.40 1010.76 1011.03 1010.85 1010.81 1010.68 1010.97 1011.85 1012.15 1012.88 1013.90 1014.77 1015.48 1015.49 1015.45 1016.26 1017.29 1018.69 1020.05 1020.89 1021.51 1022.06 1022.54 1023.14 1023.56 1023.58 1024.57 1025.49 1026.19 1026.61 1026.79 1026.95
1002.57 1002.27 1001.91 1001.71 1001.63 1001.60 1001.61 1001.53 1001.47 1001.79 1003.02 1003.69 1004.44 1005.33 1005.78 1006.28 1007.09 1008.03 1008.90 1009.73 1010.44 1010.75 1011.21 1011.51 1011.51 1011.39 1011.32 1011.22 1011.54 1011.97 1012.76 1013.83 1014.54 1015.08 1014.88 1014.73 1015.76 1017.49 1018.95 1020.21 1021.46 1022.57 1023.09 1023.53 1024.28 1024.36 1024.72 1025.39 1025.62 1025.84 1026.47 1026.81 1027.09 1027.15
1002.11 1001.85 1001.71 1001.67 1001.41 1001.33 1001.33 1001.42 1001.46 1002.20 1003.18 1004.72 1005.90 1007.29 1008.49 1009.36 1010.63 1011.42 1011.81 1011.78 1012.06 1011.98 1011.90 1011.80 1011.89 1011.89 1011.75 1011.69 1011.97 1012.44 1013.91 1014.27 1014.79 1015.32 1014.81 1015.15 1016.47 1018.07 1019.54 1020.77 1022.07 1023.39 1024.10 1024.64 1025.26 1025.51 1025.85 1026.03 1026.25 1026.40 1026.68 1027.02 1027.29 1027.08
1002.29 1002.03 1001.95 1002.15 1002.20 1002.29 1002.42 1002.58 1002.69 1003.75 1005.98 1007.70 1008.62 1010.78 1011.82 1012.75 1013.00 1013.14 1013.09 1012.89 1012.56 1012.40 1012.25 1012.19 1012.20 1012.12 1012.14 1012.39 1012.81 1013.55 1014.27 1014.42 1014.68 1014.82 1015.45 1016.54 1017.75 1018.93 1020.42 1021.62 1022.61 1023.59 1024.40 1025.27 1025.74 1026.13 1026.23 1026.31 1026.53 1026.68 1026.67 1026.66 1026.77 1026.63
1002.17 1002.52 1003.28 1003.21 1003.13 1003.14 1003.28 1003.58 1004.73 1006.68 1009.97 1011.72 1013.21 1013.74 1013.95 1013.91 1014.10 1014.08 1013.90 1013.60 1013.06 1012.79 1012.42 1012.22 1012.35 1012.47 1012.82 1013.00 1013.46 1013.62 1014.16 1014.44 1014.90 1015.73 1016.86 1018.10 1019.18 1020.29 1020.96 1021.88 1022.87 1023.62 1024.38 1025.13 1025.54 1025.78 1026.12 1026.51 1026.69 1026.78 1026.61 1026.30 1026.11 1025.98
1002.83 1003.73 1004.45 1004.22 1004.19 1004.18 1004.06 1005.50 1008.18 1011.27 1013.65 1015.19 1016.28 1015.93 1015.97 1015.87 1015.64 1015.21 1014.88 1014.31 1013.60 1013.15 1012.92 1012.78 1012.95 1013.42 1013.81 1013.91 1014.10 1014.45 1014.94 1015.60 1016.41 1017.19 1018.11 1019.20 1020.04 1020.73 1021.30 1022.03 1022.92 1023.62 1024.30 1024.76 1025.15 1025.62 1025.97 1026.45 1026.48 1026.49 1026.48 1025.92 1025.37 1024.99
1005.26 1005.22 1004.74 1004.59 1004.81 1005.35 1007.38 1008.82 1011.48 1014.11 1016.33 1017.11 1017.23 1017.08 1016.71 1016.47 1016.19 1015.71 1015.30 1014.78 1014.20 1013.79 1013.70 1013.92 1014.17 1014.59 1014.90 1015.21 1015.36 1015.85 1016.26 1017.01 1017.70 1018.52 1019.04 1019.75 1020.32 1020.99 1021.26 1021.84 1022.51 1023.04 1023.58 1024.12 1024.59 1025.01 1025.34 1025.59 1025.73 1025.56 1025.21 1024.91 1024.51 1023.95
1006.19 1006.00 1005.43 1005.32 1005.28 1007.20 1010.45 1012.52 1013.46 1016.17 1017.50 1017.56 1017.50 1017.27 1017.01 1016.80 1016.58 1016.45 1016.09 1015.54 1015.01 1014.76 1014.94 1015.21 1015.85 1016.44 1016.70 1016.91 1017.26 1017.20 1017.68 1017.87 1018.37 1018.83 1019.37 1020.22 1020.56 1020.92 1021.28 1021.63 1022.03 1022.54 1023.00 1023.46 1023.86 1024.10 1024.27 1024.09 1023.97 1023.98 1023.87 1023.82 1023.68 1023.41
1006.40 1006.46 1006.33 1006.30 1006.12 1009.55 1013.35 1015.33 1015.61 1016.87 1018.17 1018.23 1018.04 1017.99 1017.95 1017.78 1017.47 1017.24 1017.06 1016.76 1016.27 1016.15 1016.78 1017.65 1018.31 1018.41 1018.46 1018.43 1018.50 1018.40 1018.11 1017.99 1018.38 1018.87 1019.24 1019.69 1020.26 1020.73 1020.90 1021.11 1021.41 1021.77 1022.24 1022.58 1022.81 1023.01 1023.24 1023.01 1022.73 1022.70 1022.77 1022.86 1022.63 1022.45
1007.08 1007.53 1007.51 1007.41 1009.65 1012.00 1015.70 1017.65 1018.22 1018.58 1018.87 1019.17 1019.35 1019.18 1019.41 1019.01 1018.92 1019.11 1019.06 1018.44 1017.97 1019.09 1019.47 1019.71 1019.45 1019.40 1019.54 1019.18 1019.09 1018.88 1018.41 1018.27 1018.11 1018.09 1018.28 1018.68 1019.32 1019.76 1020.13 1020.43 1020.71 1021.08 1021.37 1021.56 1021.72 1021.75 1021.25 1021.61 1021.42 1021.46 1021.58 1021.48 1021.42 1021.39
1008.90 1008.59 1009.53 1010.11 1012.83 1014.83 1017.09 1018.49 1018.94 1019.29 1019.51 1020.24 1020.33 1020.64 1021.09 1021.70 1021.55 1021.14 1020.64 1020.05 1020.61 1021.18 1020.82 1020.52 1019.96 1019.72 1019.29 1018.89 1018.63 1018.48 1018.13 1017.92 1017.80 1017.72 1017.34 1017.56 1018.71 1019.02 1019.20 1019.30 1019.84 1020.07 1020.26 1020.27 1020.40 1020.52 1020.48 1020.45 1020.54 1020.68 1020.85 1020.87 1020.78 1020.81
1009.59 1010.09 1012.02 1013.64 1015.28 1017.43 1019.83 1019.25 1019.97 1020.72 1021.24 1021.71 1021.65 1022.42 1023.15 1023.19 1022.42 1021.61 1021.56 1021.83 1021.38 1020.97 1020.89 1020.60 1020.01 1019.66 1019.27 1018.48 1018.16 1017.88 1017.67 1017.64 1017.46 1017.28 1017.18 1017.23 1017.46 1017.72 1017.96 1018.19 1018.48 1018.81 1019.00 1019.04 1019.23 1019.42 1019.57 1019.54 1019.76 1019.65 1020.06 1020.17 1020.29 1020.53
1011.43 1014.47 1016.65 1018.78 1019.60 1021.42 1021.17 1021.81 1021.81 1022.43 1022.64 1023.46 1024.19 1024.69 1024.45 1024.15 1022.60 1021.79 1022.35 1021.48 1020.64 1020.15 1020.04 1019.80 1019.39 1018.66 1018.10 1017.86 1017.44 1016.77 1016.57 1016.66 1016.67 1016.62 1016.61 1016.78 1016.87 1016.95 1017.12 1017.28 1017.55 1017.61 1017.72 1017.93 1018.30 1018.53 1018.77 1018.93 1018.99 1019.15 1019.45 1019.86 1020.16 1020.45
1014.72 1020.70 1021.54 1022.57 1022.81 1023.17 1023.72 1023.88 1024.21 1024.25 1025.63 1025.53 1025.61 1025.37 1025.28 1024.87 1023.75 1023.44 1023.29 1021.82 1020.34 1019.86 1019.63 1019.18 1018.88 1018.69 1018.24 1017.20 1016.53 1016.03 1015.78 1015.89 1015.96 1015.92 1015.80 1016.03 1016.14 1016.30 1016.41 1016.51 1016.63 1016.72 1016.98 1017.32 1017.53 1017.71 1017.93 1018.21 1018.47 1018.78 1019.09 1019.50 1019.81 1020.08
1021.17 1024.70 1025.17 1025.68 1025.69 1025.17 1026.05 1026.17 1026.24 1026.65 1026.54 1026.44 1026.11 1025.74 1025.81 1025.05 1024.30 1024.51 1023.63 1022.64 1021.61 1020.80 1020.27 1019.88 1019.38 1018.53 1017.91 1017.16 1016.60 1016.02 1015.72 1015.65 1015.68 1015.61 1015.26 1015.30 1015.35 1015.43 1015.43 1015.62 1015.69 1015.57 1015.75 1016.01 1016.44 1016.70 1017.00 1017.32 1017.68 1018.07 1018.49 1018.79 1018.58 1018.83
1025.48 1026.81 1026.55 1026.48 1026.60 1026.64 1026.49 1026.29 1026.48 1026.77 1026.98 1026.99 1026.57 1025.76 1025.52 1025.54 1025.44 1024.35 1023.14 1022.63 1022.28 1021.39 1020.96 1020.50 1020.01 1019.28 1018.41 1017.49 1016.80 1016.17 1015.85 1015.63 1015.56 1015.35 1015.23 1015.07 1014.91 1014.81 1014.82 1014.75 1014.54 1014.41 1014.58 1015.01 1015.39 1015.67 1016.00 1016.38 1016.79 1017.18 1017.59 1018.00 1018.30 1018.62
1027.66 1028.09 1028.15 1027.22 1027.09 1027.11 1027.20 1026.98 1026.95 1027.30 1027.11 1026.85 1026.57 1026.33 1026.06 1025.51 1025.49 1024.68 1023.70 1022.92 1022.55 1021.84 1021.27 1020.60 1020.02 1019.43 1018.68 1017.85 1017.20 1016.63 1016.00 1015.78 1015.54 1015.25 1014.89 1014.45 1014.14 1014.08 1014.07 1014.07 1014.03 1013.86 1013.95 1014.32 1014.65 1014.96 1015.30 1015.61 1015.94 1016.31 1016.75 1017.12 1017.44 1017.78
1028.38 1028.43 1028.44 1028.03 1027.63 1027.47 1027.25 1027.60 1027.54 1027.45 1027.30 1027.33 1027.14 1026.31 1025.97 1025.40 1025.17 1024.95 1024.05 1023.43 1022.66 1022.16 1021.49 1020.85 1020.15 1019.69 1018.84 1018.04 1017.25 1016.69 1016.23 1016.08 1015.81 1015.42 1014.97 1014.44 1013.91 1013.66 1013.66 1013.72 1013.67 1013.60 1013.57 1013.55 1013.28 1013.81 1014.32 1014.76 1015.16 1015.47 1015.89 1016.28 1016.65 1017.06
1028.73 1028.69 1028.58 1028.35 1028.58 1028.15 1027.76 1027.76 1027.76 1027.69 1027.65 1027.43 1027.24 1026.71 1026.09 1025.42 1025.06 1025.00 1024.34 1023.47 1022.81 1022.53 1022.14 1021.79 1021.27 1020.83 1020.10 1019.22 1018.35 1017.38 1016.70 1016.34 1016.13 1015.97 1015.40 1014.65 1014.00 1013.39 1013.23 1013.11 1013.07 1013.13 1013.25 1013.35 1013.35 1013.35 1013.05 1012.82 1013.53 1014.00 1015.20 1015.86 1016.28 1016.59
1028.92 1028.98 1028.82 1028.59 1028.18 1027.81 1028.22 1028.35 1028.26 1027.98 1028.10 1027.80 1027.72 1027.43 1026.43 1025.78 1025.12 1024.72 1024.49 1023.93 1023.18 1022.51 1021.94 1021.65 1021.30 1021.03 1020.74 1020.03 1019.37 1018.42 1017.42 1016.58 1016.19 1015.58 1014.88 1014.01 1013.24 1012.54 1012.36 1012.31 1012.34 1012.49 1012.69 1012.91 1013.06 1013.18 1013.21 1013.24 1013.47 1013.84 1014.35 1015.00 1015.53 1015.69
1029.40 1029.59 1029.84 1029.50 1028.00 1028.19 1028.51 1028.93 1028.61 1028.18 1028.16 1027.99 1027.43 1027.15 1026.20 1026.01 1025.39 1024.69 1024.07 1023.81 1023.09 1022.57 1022.13 1022.08 1021.88 1021.33 1020.92 1020.59 1020.00 1019.31 1018.11 1017.60 1016.65 1015.68 1014.21 1012.69 1012.01 1011.60 1011.77 1011.63 1011.70 1011.88 1012.20 1012.50 1012.71 1012.89 1013.06 1013.29 1013.50 1013.82 1014.23 1014.67 1015.07 1015.37
1029.77 1029.85 1029.80 1030.08 1028.90 1028.39 1028.57 1028.55 1028.49 1027.94 1027.57 1027.57 1027.07 1026.82 1026.54 1026.26 1025.25 1024.36 1023.88 1023.76 1023.94 1023.77 1023.22 1022.51 1022.00 1021.53 1021.05 1020.69 1020.25 1019.59 1018.75 1018.20 1017.22 1016.05 1014.44 1013.44 1012.40 1011.93 1011.93 1011.66 1011.55 1011.64 1011.88 1012.16 1012.45 1012.70 1012.94 1013.16 1013.41 1013.67 1013.97 1014.31 1014.65 1014.98
Wind_Speed
22 22 21 21 22 20 20 20 20 18 19 20 20 17 15 13 12 8 4 8 11 4 12 9 19 13 3 6 8 5 2 2 4 6 6 5 7 9 3 6 11 12 11 7 8 8 16 9 7 11 3 3 2 1
24 24 22 22 22 22 22 22 21 20 19 19 18 19 18 17 16 12 9 4 8 10 7 7 19 23 21 22 9 9 6 6 7 5 5 4 6 4 4 7 3 6 12 9 13 11 2 18 2 2 3 3 4 4
24 24 24 24 23 23 23 23 22 22 21 21 21 20 20 19 18 15 8 3 2 5 8 5 8 5 9 18 10 9 4 7 7 5 5 5 6 7 8 10 5 7 5 4 2 7 6 11 4 4 2 3 4 4
26 26 26 26 25 24 23 22 23 21 22 21 23 22 22 20 19 17 7 4 4 3 6 10 1 3 3 2 3 4 11 3 1 3 6 4 5 7 6 3 6 5 7 8 7 3 1 7 12 9 7 7 8 7
24 25 26 26 25 24 23 22 21 22 22 23 24 25 23 21 20 13 6 5 8 8 4 4 1 4 1 3 4 3 5 9 3 4 4 5 2 3 1 1 5 7 8 8 7 3 1 3 2 9 9 8 8 7
23 24 24 24 24 24 23 23 22 22 20 21 21 22 22 20 19 1 4 6 12 8 7 9 4 3 3 4 5 4 2 1 2 3 2 1 2 2 4 5 1 3 4 3 2 4 5 5 6 5 6 8 7 7
22 22 23 24 24 24 24 22 22 20 20 18 16 15 20 14 6 5 4 4 4 5 4 6 3 1 2 2 2 1 2 2 0 0 2 1 2 0 2 5 5 6 6 5 5 4 5 3 3 6 9 7 11 9
23 23 24 24 25 24 24 23 22 20 18 17 16 15 18 17 10 6 8 18 13 2 2 4 2 2 1 2 2 2 1 1 3 2 1 1 1 1 5 3 7 6 7 6 6 6 6 8 7 7 5 5 8 6
24 23 24 24 23 23 23 21 20 18 18 17 16 17 6 2 4 4 4 3 1 4 3 3 5 10 1 1 1 2 1 2 2 2 1 2 2 7 1 5 8 7 2 8 7 8 7 7 6 4 3 4 5 3
24 23 24 23 22 23 20 18 17 17 16 13 3 2 3 3 1 4 0 1 4 2 3 2 2 2 3 1 1 3 2 2 3 1 0 2 4 2 1 3 6 7 9 9 6 4 3 3 4 2 3 2 4 3
21 22 24 24 20 18 15 15 15 13 2 2 2 3 2 2 0 1 1 2 2 1 4 1 2 2 2 2 2 0 1 0 1 3 1 1 5 4 2 5 5 6 7 4 4 3 2 5 7 5 3 3 3 2
19 23 18 12 10 11 12 13 14 3 3 5 3 1 1 1 2 1 1 2 4 1 3 3 3 3 1 1 2 0 1 1 2 3 1 3 5 1 6 6 4 5 6 6 2 7 4 8 6 6 5 4 4 3
15 16 12 9 9 9 9 10 8 3 10 2 2 1 0 1 1 4 2 3 1 2 1 1 1 1 1 1 3 2 2 1 1 1 4 3 4 5 6 6 5 2 1 5 4 5 5 4 2 3 3 3 2 2
14 14 12 11 9 8 7 9 7 7 4 2 3 2 3 4 4 3 3 2 1 2 1 0 1 1 1 2 1 3 1 1 1 2 5 1 3 7 5 4 7 6 4 5 5 4 4 4 2 2 4 2 2 4
15 14 17 18 16 17 18 19 17 7 6 5 5 4 5 2 1 2 2 2 1 1 1 1 1 0 1 3 2 3 1 3 4 4 2 1 2 6 7 5 5 7 5 4 3 4 4 3 2 2 2 2 3 3
14 13 10 17 14 13 11 11 9 5 6 5 9 3 4 1 3 3 4 3 3 3 2 0 0 2 2 2 2 3 2 2 2 2 1 1 2 3 4 4 4 4 5 4 4 3 3 4 4 3 4 4 5 5
12 5 11 13 15 21 22 8 5 9 6 7 4 2 1 1 2 2 2 3 4 3 2 1 2 1 1 1 1 1 3 2 2 1 1 1 3 5 5 5 5 5 5 5 3 3 3 2 3 2 2 3 3 5
7 8 13 9 5 8 5 7 6 6 7 3 3 4 3 1 3 2 3 3 4 3 3 2 0 1 1 2 3 3 2 1 1 1 1 1 1 2 4 6 6 5 5 4 3 4 3 3 3 4 4 4 4 4
10 11 14 13 8 7 6 7 5 6 2 0 1 1 1 2 1 3 3 4 4 1 1 2 4 1 3 2 3 3 2 3 2 2 1 2 2 4 5 3 4 4 5 5 5 4 4 6 4 3 3 2 2 2
10 20 16 20 9 6 8 5 4 5 2 1 1 2 2 2 2 2 2 4 3 2 5 4 1 3 3 3 3 3 2 2 3 2 2 3 3 4 5 5 4 4 3 3 2 7 2 3 3 4 3 4 2 3
10 9 14 8 7 9 7 2 5 2 1 2 3 2 3 4 4 5 4 5 5 3 3 2 4 4 3 4 3 3 4 3 3 2 2 2 4 4 3 4 4 3 4 4 4 4 6 4 3 3 3 1 2 3
3 10 5 7 7 6 6 3 4 2 3 2 3 2 4 4 4 4 4 4 3 2 2 3 3 3 4 4 3 4 3 3 3 3 3 4 3 4 4 5 5 5 5 5 4 5 4 3 3 3 3 3 4 2
7 7 6 8 9 9 3 3 6 6 5 5 4 5 4 4 3 3 4 2 3 3 3 3 4 4 6 5 4 5 5 4 3 3 3 2 2 4 4 5 6 6 5 5 5 4 4 8 7 5 5 3 3 2
11 10 9 7 8 4 4 7 3 5 5 6 5 6 6 4 7 5 2 3 3 2 2 3 3 5 3 4 3 3 3 4 4 2 2 3 3 3 4 4 5 5 5 2 4 5 5 4 8 2 4 3 3 3
13 14 9 10 5 9 10 9 8 8 4 4 6 5 5 4 5 5 2 5 11 11 10 10 8 4 5 6 5 3 2 3 3 4 3 5 3 1 3 4 5 5 5 5 6 6 5 5 5 4 4 4 5 6
12 7 7 3 5 5 3 6 7 4 3 6 3 4 3 3 7 3 3 5 9 8 12 11 11 10 7 5 6 5 4 1 2 3 2 4 5 5 5 5 4 5 8 8 7 8 8 7 7 8 7 9 13 6
9 6 4 0 1 1 2 2 1 3 4 4 4 7 4 7 4 4 4 2 7 9 10 8 8 8 9 9 7 6 4 2 4 3 2 2 3 5 5 5 7 4 5 8 8 9 9 9 8 8 7 6 6 5
3 1 2 6 3 0 1 2 3 4 3 3 2 6 3 2 2 3 3 7 9 9 8 7 7 7 7 7 6 6 5 2 4 4 5 6 6 5 6 5 5 13 6 7 7 7 8 8 8 8 8 7 6 5
2 2 2 5 3 2 1 2 1 2 1 1 0 3 3 3 2 2 4 9 8 6 7 9 9 8 7 7 4 4 3 3 6 7 8 7 5 1 1 3 4 4 3 3 11 13 12 10 9 8 8 7 5 4
5 2 2 1 2 2 3 3 2 2 1 2 2 3 2 3 3 2 4 7 8 8 7 5 6 6 7 8 9 10 5 2 1 2 6 8 6 6 5 4 4 4 3 4 5 5 11 10 11 8 8 5 5 4
2 2 2 2 4 3 2 2 3 1 2 1 1 2 4 3 4 3 2 5 4 4 6 8 7 3 6 8 8 10 9 4 9 11 9 8 9 9 7 6 5 4 4 4 4 4 4 3 3 5 7 8 8 8
3 2 1 5 5 2 2 3 1 0 2 2 3 1 4 2 2 4 3 3 6 10 14 10 7 7 6 5 6 6 16 8 10 11 15 10 7 5 5 4 4 4 5 5 4 4 5 6 5 6 7 8 7 7
3 1 2 3 5 5 3 4 4 4 2 2 2 1 1 1 1 3 2 1 0 5 9 9 7 6 7 7 6 9 14 9 16 24 26 26 26 21 10 4 2 3 5 4 4 4 6 6 5 6 6 6 6 6
Wind_Direction
283 286 289 292 291 288 287 288 287 286 284 280 274 277 272 275 268 254 261 206 206 202 255 221 223 216 157 190 221 163 124 171 178 204 200 197 215 208 189 203 175 172 172 200 214 231 251 136 96 199 180 63 124 85
293 291 284 290 287 286 286 287 288 288 288 283 278 273 275 270 265 260 263 221 223 239 249 208 228 227 220 226 222 187 208 157 183 181 211 203 203 161 170 244 357 227 202 185 195 213 136 190 59 77 83 120 175 169
286 285 285 283 283 282 283 280 278 277 279 285 282 276 266 265 263 257 258 247 273 272 282 252 235 245 252 236 237 236 209 198 201 196 174 203 224 159 182 227 155 244 162 227 107 215 196 199 136 145 150 115 138 130
291 288 288 287 283 285 279 278 281 284 283 280 278 274 272 265 259 260 243 192 200 267 248 258 65 225 353 339 217 219 237 129 125 181 229 192 196 189 208 187 193 187 148 204 254 225 231 218 215 163 146 129 122 113
288 286 286 286 285 283 282 284 288 289 287 285 284 275 271 268 265 266 254 219 215 221 267 271 162 190 286 247 244 237 237 236 182 189 207 225 182 156 88 90 228 182 184 194 240 109 61 80 285 151 151 156 150 134
289 289 288 287 285 285 284 281 279 279 286 293 297 291 273 268 267 38 254 235 221 211 246 244 8 3 45 93 101 82 54 111 228 198 207 84 347 229 191 214 85 68 58 8 122 85 77 87 48 60 100 112 109 108
291 291 290 289 288 286 283 281 279 278 281 284 288 310 292 287 279 206 217 193 131 171 235 225 206 32 356 96 63 123 58 112 107 206 218 168 179 219 217 228 124 112 105 73 50 119 97 41 95 61 89 86 95 84
294 294 292 288 285 283 280 280 278 271 275 278 287 286 282 284 295 277 244 261 262 231 255 286 26 303 228 172 155 333 102 101 24 98 103 122 145 33 250 106 132 114 99 76 52 48 78 106 87 76 72 90 101 95
291 288 289 288 289 292 286 277 276 272 267 275 292 306 312 228 202 232 31 354 122 198 241 184 198 256 23 21 85 41 88 85 348 90 93 264 152 218 48 155 158 159 170 142 96 83 87 99 110 97 89 68 107 105
294 294 290 289 286 288 285 274 273 273 267 280 336 82 258 234 214 87 177 200 205 34 23 206 20 157 92 171 155 85 345 158 178 210 186 220 263 44 356 43 109 133 138 141 114 123 125 144 148 139 103 131 122 148
304 302 295 289 290 285 280 272 268 266 306 116 171 225 320 301 339 8 215 125 2 139 21 321 38 123 11 131 148 18 145 202 127 277 159 274 279 232 173 97 65 107 119 93 72 82 109 141 152 136 168 195 170 177
316 317 313 293 284 285 283 272 260 213 180 173 148 98 351 37 355 224 53 11 57 285 356 41 6 12 54 354 104 60 148 169 218 119 121 264 259 124 131 124 107 99 112 101 45 118 108 93 122 133 140 161 202 217
321 332 335 330 311 303 289 291 298 123 108 85 124 172 66 299 229 170 236 323 352 359 22 336 42 25 12 48 80 114 135 132 174 224 238 234 113 143 147 135 124 76 81 124 115 81 88 113 107 120 158 217 198 269
310 309 316 324 310 310 310 328 314 131 93 120 146 124 353 11 50 21 335 12 11 302 243 29 57 41 327 64 50 106 36 212 200 272 241 194 164 153 140 123 127 181 175 141 129 134 134 138 170 222 218 192 181 277
42 44 69 60 57 66 68 64 58 54 44 56 29 46 39 226 284 281 265 291 332 300 344 11 45 52 45 90 51 118 124 238 217 238 261 300 180 141 154 162 158 157 166 167 163 163 179 166 151 293 265 225 215 267
106 68 53 56 53 54 67 60 39 60 52 58 34 39 357 21 16 4 349 345 355 322 288 337 185 65 51 95 147 218 199 244 266 255 325 146 163 152 150 159 168 157 167 170 174 173 150 167 183 225 303 259 240 229
58 49 72 62 60 50 44 68 51 50 78 41 6 356 17 239 287 305 326 323 312 307 10 334 358 11 217 236 284 226 228 264 285 322 240 221 185 191 168 147 156 163 177 177 155 171 181 141 124 57 307 275 242 240
36 7 22 27 64 47 35 40 73 66 61 31 55 313 326 271 303 320 332 320 337 358 355 33 143 322 332 305 304 262 258 264 225 262 286 214 235 145 157 164 168 175 168 173 167 160 139 155 186 229 223 248 280 280
62 41 28 46 72 85 63 30 39 84 43 318 295 295 297 297 249 292 323 331 310 320 328 26 54 352 293 279 255 279 249 216 205 210 234 251 192 176 169 155 148 157 168 167 182 191 195 203 209 204 214 197 233 272
44 34 33 38 54 75 63 19 29 82 69 300 341 330 292 278 298 340 350 358 346 48 36 37 238 245 218 248 222 243 252 188 140 138 232 196 182 175 190 175 185 166 164 176 213 199 188 224 222 212 200 202 191 254
30 350 22 52 43 63 90 40 37 135 246 76 282 40 290 3 18 7 339 340 45 56 357 237 259 266 255 258 248 260 260 209 212 202 220 181 165 189 177 194 170 168 175 192 196 230 217 206 218 196 204 249 208 230
300 19 48 26 69 40 75 339 129 264 72 242 12 38 29 7 335 324 300 39 54 277 237 271 284 298 300 282 265 230 273 237 253 267 240 127 129 190 202 193 174 199 203 206 195 208 212 206 191 197 204 233 263 222
25 36 38 24 64 43 309 24 53 358 39 318 10 26 350 340 251 324 68 198 249 226 252 271 272 254 263 287 279 256 229 226 248 240 252 197 197 199 196 190 195 194 206 214 198 200 206 217 238 210 211 236 172 187
40 47 41 46 33 0 348 11 18 21 24 24 23 353 346 307 324 38 61 278 268 256 271 269 273 301 262 241 255 260 228 201 239 252 210 191 218 217 206 206 198 212 209 167 188 203 201 211 224 211 174 175 187 208
57 355 41 357 349 24 22 357 350 25 1 344 358 345 336 348 29 51 6 294 341 347 342 338 331 304 290 299 293 286 226 200 222 249 211 200 223 190 223 211 213 214 193 197 204 202 202 196 201 188 187 185 198 229
60 316 54 283 308 50 347 4 1 334 341 330 305 277 14 39 52 360 314 304 331 332 336 333 325 319 315 307 304 318 335 267 228 250 256 206 210 222 237 227 230 233 201 205 202 204 203 197 200 197 204 231 242 203
40 329 323 147 195 248 345 333 342 71 19 345 327 336 13 57 10 292 302 277 325 325 324 316 310 304 300 307 308 310 308 248 236 280 319 281 247 229 233 238 244 243 169 192 203 204 203 199 200 201 207 206 219 204
172 69 357 315 359 139 136 19 34 14 309 274 279 26 61 142 240 287 282 327 320 314 312 312 321 317 310 301 301 307 311 337 305 280 266 252 240 236 231 238 244 256 212 188 197 200 202 200 197 195 195 203 205 194
11 305 90 314 325 9 182 128 219 234 216 124 28 315 296 241 226 251 308 331 312 311 330 341 344 341 335 337 318 315 305 339 350 347 344 331 330 325 194 239 246 253 255 251 248 190 195 193 194 194 194 194 190 171
299 2 345 326 33 329 254 166 231 254 238 215 281 299 264 268 252 253 298 335 345 340 320 306 313 338 344 350 343 350 352 338 297 286 311 307 294 291 275 248 232 221 216 225 236 263 262 211 208 190 167 168 174 175
317 13 345 222 252 244 230 292 316 250 23 330 281 200 255 297 306 260 268 317 289 304 340 355 342 331 351 347 350 341 334 331 333 317 292 277 270 268 266 254 233 207 192 196 205 215 224 233 144 138 150 169 194 193
347 63 37 316 302 300 22 42 346 78 324 7 290 279 313 13 356 287 305 326 359 6 352 354 341 324 325 315 305 310 331 327 326 313 317 325 319 286 270 263 219 190 184 191 193 196 201 202 185 180 179 186 193 203
317 329 248 305 312 331 333 18 14 358 8 2 298 243 224 172 283 268 304 63 82 339 335 325 316 304 304 306 312 330 346 331 335 356 352 357 357 3 10 332 229 195 187 187 186 188 194 194 195 192 188 184 185 189